Regional Weather Roundup
Issued by NWS Newport/Morehead, NC

Current Version | Previous Version | Text Only | Print | Product List | Glossary On
Versions: 1 2 3 4 5 6 7 8 9 10 11 12 13 14 15 16 17 18 19 20 21 22 23 24 25 26 27 28 29 30 31 32 33 34 35 36 37 38 39 40 41 42 43 44 45 46 47 48 49 50
000
ASUS42 KMHX 010425
RWRMHX
WEATHER ROUNDUP FOR EASTERN NORTH CAROLINA
NATIONAL WEATHER SERVICE NEWPORT/MOREHEAD CITY NC
1200 AM EDT WED JUN 01 2016

NOTE: "FAIR" INDICATES FEW OR NO CLOUDS BELOW 12,000 FEET
WITH NO SIGNIFICANT WEATHER AND/OR OBSTRUCTIONS TO VISIBILITY

NCZ015>017-031-032-045>047-102-103-010500-
NORTH COAST

CITY           SKY/WX    TMP DP  RH WIND       PRES   REMARKS
EDENTON        PTCLDY    70  70 100 NE3       29.99R
ELIZABETH CITY CLEAR     70  67  90 NE7       29.98F
KITTY HAWK     MOCLDY    69  68  97 CALM      29.97R
MANTEO         MOCLDY    70  70 100 NE8       29.98S

$$

NCZ045>047-081-094-103-104-010500-
CENTRAL COAST

CITY           SKY/WX    TMP DP  RH WIND       PRES   REMARKS
FRISCO         RAIN      73  72  96 E3        29.97R

$$

NCZ095-097-098-100-101-010500-
SOUTHERN COAST

CITY           SKY/WX    TMP DP  RH WIND       PRES   REMARKS
BEAUFORT       RAIN      74  73  97 NE5       29.95S
CEDAR ISLAND   NOT AVBL
JACKSONVILLE   CLOUDY    74  71  91 NE6       29.94S
PINEY ISLAND   CLOUDY   N/A N/A N/A E10       29.95
WILMINGTON     CLOUDY    74  72  93 NE7       29.93F


$$

NCZ011>013-027>030-043-044-078>080-089-090>093-098-010500-
COASTAL PLAIN

CITY           SKY/WX    TMP DP  RH WIND       PRES   REMARKS
AHOSKIE        PTCLDY    68  66  94 CALM      29.99F
CLINTON        CLOUDY    73  72  98 CALM      29.97R
ELIZABETHTOWN  CLOUDY    72  72 100 CALM      29.95S
GOLDSBORO      MOCLDY    72  72 100 E5        29.95S
GREENVILLE     CLEAR     70  70 100 NE5       29.99S
HAVELOCK       MOCLDY    74  72  93 E6        29.96S
KENANSVILLE    CLOUDY    72  70  96 CALM      29.97F
KINSTON        PTCLDY    72  70  92 NE3       29.97S
NEW BERN       CLOUDY    72  69  90 NE3       29.97S
RICHLANDS      CLOUDY    72  72 100 NE5       29.96S
ROCKY MOUNT    PTCLDY    70  69  97 CALM      29.98S
WASHINGTON     CLEAR     68  67  97 CALM      29.97S
WHITEVILLE     CLOUDY    73  71  95 N3        29.94S

$$

AMZ130-135-150-152-154-156-158-170-250-252-270-ANZ085-086-088-633-658-670-010500-
MARINE OBSERVATIONS

STATION/POSITION TIME  TEMP    WIND        PRES    WAVE   SWELL
                       AIR SEA DIR/SP/G            HT/PER HT/PER
                 (UTC) (F)     (DEG/KT/KT) (MB)    (FT/S) (FT/S)
CHESAPEAKE LIGHT 0400   71      60/  5/  5 1016.0
64 E VA BEACH    0350   73 67   70/  6/  6 1015.0    3/ 7   3/ 7
DUCK             0400   69 65   50/  8/  9 1014.4
2 E DUCK         0311      67                N/A     3/ 8
OREGON INLET     0400   71 71   40/  7/  8 1014.9
13E OREGON INLT  0400      70                N/A     3/ 8   3/ 8
HATTERAS CG      0400   74 76   90/  2/  3 1014.2
DIAMOND BUOY     0350   78 80  180/ 14/ 16 1014.3    3/ 8   3/ 8
CAPE LOOKOUT     0400   75      70/  6/  7 1013.7
BEAUFORT LAB     0400   74 76   40/  5/  6 1013.2
30 SE NEW RVR IN 0325      76                N/A     4/ 7
27 SE WRIGHTSVLE 0408   76 76   70/  6/ 10 1012.9
5 SE WRIGHTSVLE  0408   74 76  130/  6/ 12 1013.9
225 S CAPE HAT   0350   77 77  150/ 14/ 16 1015.6    5/ 8   3/ 8
41 SE CHARLESTON 0350   76 77  290/  8/ 10 1013.5    3/ 8   3/ 8

$$




USA.gov is the U.S. government's official web portal to all federal, state and local government web resources and services.